Location: Nijmegen RU
(51.8233°N, 354.1314°E)
Time: 08:19:02
(UTC+01:00)

Envisat - Pass Details

Date: 02 March 2019
Orbit: 764 x 766 km, 98.2° (Epoch: 22 March)

Event Time Altitude Azimuth Distance (km) Brightness Sun altitude
Rises 07:22:30 0° 29° (NNE) 3,244 6.6 -7.8°
Reaches altitude 10° 07:26:15 10° 58° (ENE) 2,311 6.4 -7.2°
Maximum altitude 07:28:30 13° 84° (E) 2,114 6.9 -6.8°
Drops below altitude 10° 07:30:44 10° 111° (ESE) 2,303 7.0 -6.5°
Sets 07:34:26 0° 139° (SE) 3,222 7.0 -5.9°
